DW9433 Weather Reports


Display with metric or nautical units.
time (UTC)temp
F
wind
direction
speed
MPH
gust
MPH
rain 1hr
in
rain 24hr
in
rain mn
in
humidity
%
barometer
mb
20260906204530 102 326 0.0 3.0 0.00 0.00 0.00 42 1008.8
20260906203028 102 333 0.0 4.0 0.00 0.00 0.00 44 1008.9
20260906201525 102 315 0.0 3.0 0.00 0.00 0.00 42 1009.1
20260906200026 102 338 0.0 3.0 0.00 0.00 0.00 46 1009.2
20260906194522 102 350 0.0 6.0 0.00 0.00 0.00 45 1009.1
20260906193020 101 5 0.0 2.0 0.00 0.00 0.00 46 1009.3
20260906191518 102 321 0.0 5.0 0.00 0.00 0.00 47 1009.7
20260906190022 101 327 0.0 4.0 0.00 0.00 0.00 47 1010.0
20260906184514 101 337 0.0 6.0 0.00 0.00 0.00 47 1010.1
20260906183014 101 326 0.0 3.0 0.00 0.00 0.00 47 1010.4
20260906181523 101 22 0.0 4.0 0.00 0.00 0.00 47 1010.5
20260906180010 102 5 0.0 3.0 0.00 0.00 0.00 47 1010.8
20260906174510 101 5 0.0 3.0 0.00 0.00 0.00 48 1011.0
20260906173011 101 32 1.0 5.0 0.00 0.00 0.00 47 1011.2
20260906171509 100 294 0.0 2.0 0.00 0.00 0.00 48 1011.4
20260906170009 101 15 0.0 3.0 0.00 0.00 0.00 47 1011.4
20260906164506 101 205 0.0 0.0 0.00 0.00 0.00 49 1011.7
20260906163004 100 188 0.0 0.0 0.00 0.00 0.00 50 1011.8
20260906161601 99 22 0.0 1.0 0.00 0.00 0.00 53 1011.8
20260906160058 98 27 0.0 0.0 0.00 0.00 0.00 54 1011.9
20260906154559 98 88 0.0 0.0 0.00 0.00 0.00 54 1011.8
20260906153056 96 160 0.0 0.0 0.00 0.00 0.00 56 1011.8
20260906151557 95 142 0.0 0.0 0.00 0.00 0.00 59 1011.9
20260906150049 93 107 0.0 0.0 0.00 0.00 0.00 61 1012.0
20260906144543 92 109 0.0 0.0 0.00 0.00 0.00 63 1012.0
20260906143049 91 109 0.0 0.0 0.00 0.00 0.00 65 1012.1
20260906141534 89 94 0.0 0.0 0.00 0.00 0.00 68 1012.2
20260906140041 87 148 0.0 0.0 0.00 0.00 0.00 70 1012.2
20260906134528 86 148 0.0 1.0 0.00 0.00 0.00 73 1012.3
20260906133022 84 142 0.0 3.0 0.00 0.00 0.00 76 1012.4
20260906131518 82 142 0.0 4.0 0.00 0.00 0.00 79 1012.4
20260906130030 80 42 0.0 1.0 0.00 0.00 0.00 83 1012.5
20260906124517 78 45 0.0 0.0 0.00 0.00 0.00 87 1012.4
20260906123015 77 5 0.0 0.0 0.00 0.00 0.00 90 1012.4
20260906121510 76 5 0.0 0.0 0.00 0.00 0.00 92 1012.3
20260906120008 76 14 0.0 0.0 0.00 0.00 0.00 92 1012.0
20260906114508 76 14 0.0 0.0 0.00 0.00 0.00 92 1011.8
20260906113005 76 14 0.0 0.0 0.00 0.00 0.00 92 1011.4
20260906111503 76 14 0.0 0.0 0.00 0.00 0.00 92 1011.2
20260906110006 76 14 0.0 0.0 0.00 0.00 0.00 92 1011.1
20260906104600 76 14 0.0 0.0 0.00 0.00 0.00 92 1010.8
20260906103100 77 14 0.0 0.0 0.00 0.00 0.00 92 1010.7
20260906101559 77 14 0.0 0.0 0.00 0.00 0.00 92 1010.7
20260906100058 76 14 0.0 0.0 0.00 0.00 0.00 92 1010.7
20260906094558 77 14 0.0 0.0 0.00 0.00 0.00 91 1010.7
20260906093114 77 14 0.0 0.0 0.00 0.00 0.00 91 1010.6
20260906091557 77 14 0.0 0.0 0.00 0.00 0.00 91 1010.5
20260906090058 77 14 0.0 0.0 0.00 0.00 0.00 91 1010.5
20260906084553 77 14 0.0 0.0 0.00 0.00 0.00 90 1010.6
20260906083052 77 14 0.0 0.0 0.00 0.00 0.00 90 1010.5
20260906081553 78 14 0.0 0.0 0.00 0.00 0.00 89 1010.5
20260906080049 78 14 0.0 0.0 0.00 0.00 0.00 89 1010.6
20260906074549 78 14 0.0 0.0 0.00 0.00 0.00 88 1010.5
20260906073049 78 14 0.0 0.0 0.00 0.00 0.00 88 1010.5
20260906071557 78 14 0.0 0.0 0.00 0.00 0.00 89 1010.5
20260906070047 78 14 0.0 0.0 0.00 0.00 0.00 89 1010.6
20260906064546 78 14 0.0 0.0 0.00 0.00 0.00 89 1010.4
20260906063044 78 14 0.0 0.0 0.00 0.00 0.00 88 1010.6
20260906061542 78 14 0.0 0.0 0.00 0.00 0.00 88 1010.6
20260906060041 79 14 0.0 0.0 0.00 0.00 0.00 88 1010.7
20260906054544 79 14 0.0 0.0 0.00 0.00 0.00 88 1010.8
20260906053039 79 14 0.0 0.0 0.00 0.00 0.00 88 1010.8
20260906051545 79 14 0.0 0.0 0.00 0.00 0.00 87 1010.8
20260906050056 80 14 0.0 0.0 0.00 0.00 0.00 87 1010.7
20260906044533 80 14 0.0 0.0 0.00 0.00 0.00 86 1010.7
20260906043033 80 14 0.0 0.0 0.00 0.00 0.00 86 1010.5
20260906041533 80 14 0.0 0.0 0.00 0.00 0.00 85 1010.6
20260906040036 81 14 0.0 0.0 0.00 0.00 0.00 85 1010.6
20260906034540 81 14 0.0 0.0 0.00 0.00 0.00 84 1010.6
20260906033032 81 14 0.0 0.0 0.00 0.00 0.00 83 1010.7
20260906031539 82 14 0.0 0.0 0.00 0.00 0.00 83 1010.5
20260906030032 82 14 0.0 0.0 0.00 0.00 0.00 82 1010.5
20260906024531 83 14 0.0 0.0 0.00 0.00 0.00 81 1010.6
20260906023035 83 14 0.0 0.0 0.00 0.00 0.00 79 1010.4
20260906021529 83 14 0.0 0.0 0.00 0.00 0.00 79 1010.3
20260906020030 84 14 0.0 0.0 0.00 0.00 0.00 78 1010.2
20260906014533 85 14 0.0 0.0 0.00 0.00 0.00 76 1010.0
20260906013028 85 14 0.0 0.0 0.00 0.00 0.00 76 1009.8
20260906011527 86 14 0.0 0.0 0.00 0.00 0.00 74 1009.6
20260906010028 88 14 0.0 0.0 0.00 0.00 0.00 71 1009.4
20260906004527 89 14 0.0 0.0 0.00 0.00 0.00 67 1009.4
20260906003027 90 14 0.0 0.0 0.00 0.00 0.00 65 1009.4
20260906001525 92 14 0.0 0.0 0.00 0.00 0.00 63 1009.4
20260906000029 94 14 0.0 0.0 0.00 0.00 0.00 60 1009.4
20260905234524 95 14 0.0 0.0 0.00 0.00 0.00 55 1009.4
20260905233027 96 14 0.0 0.0 0.00 0.00 0.00 52 1009.4
20260905231522 97 14 0.0 1.0 0.00 0.00 0.00 50 1009.5
20260905230022 97 17 0.0 1.0 0.00 0.00 0.00 49 1009.6
20260905224522 97 5 0.0 2.0 0.00 0.00 0.00 51 1009.5
20260905223022 97 310 0.0 0.0 0.00 0.00 0.00 51 1009.5
20260905221520 97 29 0.0 5.0 0.00 0.00 0.00 52 1009.6
20260905220024 98 32 0.0 2.0 0.00 0.00 0.00 52 1009.6
20260905214520 98 65 0.0 7.0 0.00 0.00 0.00 50 1009.7
20260905213022 100 35 0.0 5.0 0.00 0.00 0.00 47 1009.5
20260905211518 100 34 0.0 1.0 0.00 0.00 0.00 44 1009.7
20260905210016 101 11 0.0 5.0 0.00 0.00 0.00 44 1009.9